Location: Newark
(48.6767°N, 1.3256°E)
Time: 07:27:09
(UTC+00:00)

ISS - Pass Details

Date: 25 November 2019
Orbit: 411 x 421 km, 51.6° (Epoch: 15 December)

Event Time Altitude Azimuth Distance (km) Brightness Sun altitude
Rises 16:34:44 0° 199° (SSW) 2,342 0.8 -5.1°
Reaches altitude 10° 16:37:23 10° 177° (S) 1,487 -0.7 -5.5°
Maximum altitude 16:39:30 16° 137° (SE) 1,184 -1.6 -5.8°
Drops below altitude 10° 16:41:38 10° 98° (E) 1,498 -1.5 -6.1°
Enters shadow 16:42:34 - 87° (E) 1,772 -1.2 -6.3°
